Home > Weather > Bridgetown > Past weeks

Flag for Barbados Past Weather in Bridgetown, Barbados — Yesterday and Last 2 Weeks

Now
82 °F

Passing clouds.


Feels Like: 89 °F
Forecast: 81 / 88 °F
Wind: 18 mph from East

Location: Grantley Adams

Current Time: Aug 29, 2016 at 1:50:57 AM

Latest Report: Aug 29, 2016 at 1:00 AM


Visibility: N/A

Pressure: 29.95 "Hg

Humidity: 79%

Dew Point: 75 °F

Location of BridgetownLocation

Past Weather in Bridgetown — Graph

°F

Bridgetown Temperature Yesterday

Maximum temperature yesterday: 90 °F (at 1:00 PM)
Minimum temperature yesterday: 81 °F (at 12:00 AM)
Average temperature yesterday: 84 °F

High & Low Weather Summary for the Past Weeks

 TemperatureHumidityPressure
High90 °F (Aug 18, 2:00 PM)94% (Aug 23, 3:00 AM)30.01 "Hg (Aug 23, 3:00 AM)
Low75 °F (Aug 23, 3:00 AM)55% (Aug 23, 10:00 AM)29.86 "Hg (Aug 23, 3:00 PM)
Average83 °F76%29.93 "Hg
* Reported Aug 14 12:00 AM — Aug 29 12:00 AM, Bridgetown, Weather by CustomWeather, © 2016

Note: Actual official high and low records may vary slightly from our data, if they occured in-between our weather recording intervals... More about our weather records

Advertising

Bridgetown Weather History for the Previous 24 Hours

Scroll right to see more
 ConditionsComfort  
Time TempWeatherWind HumidityBarometerVisibility
12:00 AM
Mon, Aug 29
82 °FPassing clouds.17 mph79%29.98 "HgN/A
11:00 PM
Sun, Aug 28
82 °FPassing clouds.18 mph79%29.98 "HgN/A
10:00 PM82 °FPassing clouds.17 mph79%29.98 "HgN/A
9:00 PM82 °FPassing clouds.18 mph84%29.95 "HgN/A
8:00 PM82 °FPassing clouds.14 mph79%29.95 "HgN/A
7:00 PM82 °FPassing clouds.16 mph79%29.92 "HgN/A
6:00 PM84 °FPassing clouds.16 mph74%29.92 "HgN/A
5:00 PM84 °FScattered clouds.18 mph79%29.89 "HgN/A
4:00 PM86 °FScattered clouds.18 mph75%29.89 "HgN/A
3:00 PM88 °FBroken clouds.16 mph70%29.89 "HgN/A
2:00 PM88 °FPartly sunny.15 mph66%29.92 "HgN/A
1:00 PM90 °FPartly sunny.17 mph63%29.95 "HgN/A
12:00 PM88 °FPartly sunny.17 mph66%29.95 "HgN/A
11:00 AM88 °FPartly sunny.16 mph62%29.98 "HgN/A
10:00 AM88 °FScattered clouds.18 mph66%29.98 "HgN/A
9:00 AM86 °FScattered clouds.17 mph70%29.98 "HgN/A
8:00 AM86 °FPassing clouds.17 mph70%29.95 "HgN/A
7:00 AM84 °FPassing clouds.15 mph74%29.95 "HgN/A
6:00 AM81 °FScattered clouds.15 mph79%29.92 "HgN/A
5:00 AM81 °FPassing clouds.12 mph79%29.92 "HgN/A
4:00 AM81 °FPassing clouds.14 mph79%29.92 "HgN/A
3:00 AM81 °FPassing clouds.12 mph79%29.92 "HgN/A
2:00 AM81 °FPassing clouds.9 mph84%29.92 "HgN/A
1:00 AM81 °FPassing clouds.12 mph79%29.92 "HgN/A
Weather by CustomWeather, © 2016

See weather overviewHow to use our weather pages